Location: Newark
(58.2667°N, 22.3833°E)
Time: 11:18:14
(UTC+00:00)

N. Korean satellite - Visible Passes

Search period start: 20 October 2019 00:00
Search period end: 30 October 2019 00:00
Orbit: 455 x 508 km, 97.2° (Epoch: 19 October)

Date Brightness Start Highest point End Pass type
(mag) Time Alt. Az. Time Alt. Az. Time Alt. Az.
20 Oct 10.3 03:13:16 10° ENE 03:14:38 12° E 03:16:01 10° ESE visible
21 Oct 7.9 04:19:48 10° NNE 04:23:17 46° E 04:26:48 10° S visible
21 Oct 10.0 16:38:42 10° SW 16:40:52 16° W 16:43:03 10° NW visible
22 Oct 9.1 03:54:42 10° NE 03:57:51 27° E 04:01:01 10° SSE visible
22 Oct 9.1 16:12:22 10° SSW 16:15:19 26° W 16:18:18 10° NW visible
23 Oct 9.9 03:29:53 10° NE 03:32:19 17° E 03:34:46 10° SE visible
23 Oct 7.9 15:46:32 10° S 15:49:51 44° W 15:53:15 10° NNW visible
24 Oct 10.5 03:06:14 10° ENE 03:06:43 10° E 03:07:12 10° E visible
24 Oct 7.0 04:37:11 10° NNE 04:40:49 69° ESE 04:44:28 10° S visible
24 Oct 10.4 16:57:31 10° W 16:58:32 11° W 16:59:33 10° WNW visible
25 Oct 8.3 04:11:58 10° NNE 04:15:25 39° E 04:18:54 10° SSE visible
25 Oct 9.8 16:30:25 10° SW 16:32:55 18° W 16:35:27 10° NW visible
26 Oct 9.3 03:46:55 10° NE 03:49:56 24° E 03:52:58 10° SSE visible
26 Oct 8.8 16:04:16 10° SSW 16:07:23 30° W 16:10:34 10° NNW visible
27 Oct 10.1 03:22:14 10° NE 03:24:23 15° E 03:26:32 10° ESE visible
27 Oct 7.5 15:38:31 10° S 15:41:56 53° W 15:45:26 10° NNW visible
28 Oct 7.4 04:29:18 10° NNE 04:32:55 58° E 04:36:35 10° S visible
28 Oct 10.1 16:48:49 10° WSW 16:50:32 13° W 16:52:17 10° NW visible
29 Oct 8.6 04:04:07 10° NNE 04:07:30 34° E 04:10:54 10° SSE visible
29 Oct 9.5 16:22:10 10° SW 16:24:56 21° W 16:27:45 10° NW visible
